This is the latest recevied weather packets stored in our database for station/object KC1TEM-13. If no packets are shown the sender has not sent any weather packets the latest 10 day(s).
| Time | Temp. | Humidity | Pressure | Rain* | Wind** | Luminosity | Snow |
|---|---|---|---|---|---|---|---|
| 1777409604 | 13.33° C | 19% | 1022.2 hPa | 0 mm | - | 336 W/m² | - |
| 1777409300 | 13.33° C | 21% | 1022.4 hPa | 0 mm | - | 366 W/m² | - |
| 1777408996 | 13.33° C | 21% | 1022.1 hPa | 0 mm | - | 399 W/m² | - |
| 1777408693 | 13.33° C | 20% | 1022.3 hPa | 0 mm | - | 323 W/m² | - |
| 1777408389 | 13.89° C | 22% | 1022.1 hPa | 0 mm | - | 296 W/m² | - |
| 1777408089 | 13.89° C | 21% | 1022.2 hPa | 0 mm | - | 435 W/m² | - |
| 1777407785 | 13.89° C | 22% | 1022.5 hPa | 0 mm | - | 467 W/m² | - |
| 1777407480 | 13.89° C | 20% | 1022.4 hPa | 0 mm | - | 484 W/m² | - |
| 1777407175 | 13.89° C | 24% | 1022.6 hPa | 0 mm | - | 502 W/m² | - |
| 1777406871 | 13.89° C | 22% | 1022.3 hPa | 0 mm | - | 519 W/m² | - |
| 1777406566 | 13.89° C | 22% | 1022.1 hPa | 0 mm | - | 535 W/m² | - |
| 1777406262 | 13.89° C | 23% | 1022.3 hPa | 0 mm | - | 553 W/m² | - |
| 1777405961 | 13.89° C | 22% | 1022.3 hPa | 0 mm | - | 573 W/m² | - |
| 1777405657 | 13.89° C | 23% | 1022.3 hPa | 0 mm | - | 592 W/m² | - |
| 1777405355 | 13.33° C | 26% | 1022.3 hPa | 0 mm | - | 595 W/m² | - |
| 1777405050 | 13.89° C | 28% | 1022.3 hPa | 0 mm | - | 610 W/m² | - |
| 1777404745 | 14.44° C | 26% | 1022.3 hPa | 0 mm | - | 550 W/m² | - |
| 1777404441 | 14.44° C | 27% | 1022.4 hPa | 0 mm | - | 568 W/m² | - |
| 1777404137 | 14.44° C | 25% | 1022.5 hPa | 0 mm | - | 649 W/m² | - |
| 1777403834 | 14.44° C | 26% | 1022.6 hPa | 0 mm | - | 665 W/m² | - |
| 1777403529 | 14.44° C | 27% | 1022.6 hPa | 0 mm | - | 678 W/m² | - |
| 1777403229 | 14.44° C | 29% | 1022.7 hPa | 0 mm | - | 687 W/m² | - |
| 1777402924 | 14.44° C | 26% | 1022.6 hPa | 0 mm | - | 701 W/m² | - |
| 1777402620 | 14.44° C | 28% | 1022.6 hPa | 0 mm | - | 716 W/m² | - |
| 1777402318 | 14.44° C | 26% | 1022.6 hPa | 0 mm | - | 716 W/m² | - |
* Rain latest hour (hover to see other rain measurements)
** Current wind speed in m/s (hover to see current wind gust speed)